Location: ????????
(60.4333°N, 46.4710°E)
Time: 04:26:30
(UTC+00:00)

ARGOS - Pass Details

Date: 25 November 2020
Orbit: 820 x 835 km, 98.4° (Epoch: 19 January)

Event Time Altitude Azimuth Distance (km) Brightness Sun altitude
Exits shadow 14:56:47 29° 123° (ESE) 1,495 4.1 -20.0°
Maximum altitude 14:59:21 53° 62° (ENE) 1,023 3.2 -20.3°
Drops below altitude 10° 15:04:36 10° 347° (NNW) 2,449 5.7 -20.9°
Sets 15:07:00 0° 343° (NNW) 3,384 6.5 -21.2°
